TimeCDT,TemperatureF,Dew PointF,Humidity,Sea Level PressureIn,VisibilityMPH,Wind Direction,Wind SpeedMPH,Gust SpeedMPH,PrecipitationIn,Events,Conditions,WindDirDegrees,DateUTC
12:53 AM,75.0,69.1,82,29.90,10.0,SSE,12.7,21.9,N/A,,Overcast,160,2013-04-10 05:53:00
1:53 AM,75.0,69.1,82,29.88,10.0,SSE,13.8,23.0,N/A,,Overcast,150,2013-04-10 06:53:00
2:53 AM,75.0,69.1,82,29.88,10.0,SSE,12.7,25.3,N/A,,Overcast,160,2013-04-10 07:53:00
3:29 AM,73.4,69.8,88,29.85,10.0,SSE,18.4,29.9,N/A,,Overcast,160,2013-04-10 08:29:00
3:36 AM,73.4,69.8,88,29.84,10.0,SSE,15.0,29.9,N/A,,Overcast,150,2013-04-10 08:36:00
3:53 AM,73.9,68.0,82,29.81,10.0,SE,10.4,25.3,N/A,,Overcast,140,2013-04-10 08:53:00
4:06 AM,73.4,68.0,83,29.81,10.0,SE,12.7,26.5,N/A,,Overcast,140,2013-04-10 09:06:00
4:53 AM,73.9,68.0,82,29.83,10.0,SE,9.2,16.1,N/A,,Mostly Cloudy,140,2013-04-10 09:53:00
5:19 AM,73.4,68.0,83,29.84,10.0,SSE,6.9,17.3,N/A,,Mostly Cloudy,160,2013-04-10 10:19:00
5:53 AM,73.0,68.0,84,29.83,10.0,SSE,10.4,24.2,N/A,,Overcast,160,2013-04-10 10:53:00
6:36 AM,73.4,68.0,83,29.83,10.0,SSE,8.1,-,N/A,,Scattered Clouds,160,2013-04-10 11:36:00
6:53 AM,73.0,68.0,84,29.83,10.0,SSE,8.1,-,N/A,,Partly Cloudy,160,2013-04-10 11:53:00
7:53 AM,73.9,68.0,82,29.87,10.0,South,9.2,-,N/A,,Scattered Clouds,170,2013-04-10 12:53:00
8:01 AM,73.4,68.0,83,29.87,10.0,South,10.4,18.4,N/A,,Mostly Cloudy,170,2013-04-10 13:01:00
8:53 AM,75.0,68.0,79,29.89,10.0,SSE,15.0,25.3,N/A,,Overcast,160,2013-04-10 13:53:00
9:48 AM,75.2,69.8,83,29.90,9.0,SSE,12.7,21.9,N/A,,Overcast,160,2013-04-10 14:48:00
9:53 AM,75.9,69.1,79,29.90,9.0,South,15.0,21.9,N/A,,Overcast,170,2013-04-10 14:53:00
10:53 AM,77.0,69.1,76,29.89,10.0,SSE,13.8,26.5,N/A,,Overcast,160,2013-04-10 15:53:00
11:53 AM,78.1,70.0,76,29.89,10.0,South,16.1,29.9,N/A,,Overcast,170,2013-04-10 16:53:00
12:53 PM,79.0,70.0,74,29.88,10.0,SSE,18.4,33.4,N/A,,Overcast,160,2013-04-10 17:53:00
1:53 PM,80.1,70.0,71,29.86,10.0,South,15.0,27.6,N/A,,Overcast,170,2013-04-10 18:53:00
2:53 PM,80.1,69.1,69,29.85,10.0,South,17.3,29.9,N/A,,Overcast,170,2013-04-10 19:53:00
3:53 PM,80.1,70.0,71,29.83,10.0,South,17.3,28.8,N/A,,Mostly Cloudy,170,2013-04-10 20:53:00
4:01 PM,78.8,69.8,74,29.83,10.0,South,19.6,33.4,N/A,,Overcast,170,2013-04-10 21:01:00
4:53 PM,79.0,70.0,74,29.82,10.0,South,18.4,25.3,N/A,,Overcast,170,2013-04-10 21:53:00
5:53 PM,78.1,70.0,76,29.82,10.0,South,17.3,27.6,N/A,,Mostly Cloudy,170,2013-04-10 22:53:00
6:53 PM,77.0,70.0,79,29.81,10.0,SSE,12.7,27.6,N/A,,Overcast,160,2013-04-10 23:53:00
7:53 PM,75.9,70.0,82,29.81,10.0,South,13.8,19.6,N/A,,Overcast,170,2013-04-11 00:53:00
8:53 PM,75.9,70.0,82,29.80,10.0,SSE,13.8,24.2,N/A,,Overcast,160,2013-04-11 01:53:00
9:16 PM,75.2,69.8,83,29.80,10.0,SSE,12.7,25.3,N/A,,Overcast,160,2013-04-11 02:16:00
9:53 PM,75.0,70.0,84,29.79,10.0,SSE,13.8,26.5,N/A,,Overcast,160,2013-04-11 02:53:00
10:53 PM,75.0,70.0,84,29.78,10.0,South,13.8,24.2,N/A,,Overcast,170,2013-04-11 03:53:00
11:53 PM,75.0,70.0,84,29.78,10.0,South,12.7,21.9,N/A,,Overcast,170,2013-04-11 04:53:00